Tracking 31030 objects as of 16-Jul-2025
HD Live streaming from Space Station
objects crossing your sky now

CZ-6A DEB

Track CZ-6A DEB now!
10-day predictions


NORAD ID: 54606
Int'l Code: 2022-151NG
Perigee: 757.1 km
Apogee: 843.1 km
Inclination: 98.8 °
Period: 100.7 minutes
Semi major axis: 7171 km
RCS: Unknown
Launch date: November 11, 2022
Source: People's Republic of China (PRC)
Launch site: Taiyaun Space Center, China (TSC)

Note: This is SATELLITE DEBRIS
Your satellite tracking list
Your tracking list is empty




NASA's NSSDC Master Catalog

Two Line Element Set (TLE):
1 54606U 22151NG  25196.58821431  .00004081  00000-0  15793-2 0  9997
2 54606  98.8101 212.2321 0059952 216.9657 142.7387 14.29633304137759
Source of the keplerian elements: AFSPC